Regional Weather Roundup
Issued by NWS

Home | Current Version | Previous Version | Graphics & Text | Print | Product List | Glossary On
Versions: 1 2 3 4 5 6 7 8 9 10 11 12 13 14 15 16 17 18 19 20 21 22 23 24 25 26 27 28 29 30 31 32 33 34 35 36 37 38 39 40 41 42 43 44 45 46 47 48 49 50
000
ASUS45 KCYS 210310
RWRWY

WYOMING REGIONAL WEATHER ROUNDUP
NATIONAL WEATHER SERVICE CHEYENNE WY
900 PM MDT SAT SEP 20 2014

NOTE:  "FAIR" INDICATES FEW OR NO CLOUDS BELOW 12,000 FEET
WITH NO SIGNIFICANT WEATHER AND/OR OBSTRUCTIONS TO VISIBILITY.

WYZ001-210400-
YELLOWSTONE NATIONAL PARK

CITY           SKY/WX    TMP DP  RH WIND       PRES   REMARKS
LK YELLOWSTONE   N/A     44  39  82 CALM      30.41R
W YELLOWSTONE  NOT AVBL

$$
WYZ002>013-054>058-071-098>099-210400-
NORTHERN WYOMING

CITY           SKY/WX    TMP DP  RH WIND       PRES   REMARKS
JACKSON        CLEAR     57  43  58 CALM      30.28R
CODY             N/A    N/A N/A N/A MISG        N/A
GREYBULL       CLEAR     66  38  35 NW9       30.22R
WORLAND        CLEAR     56  41  57 CALM      30.23R
SHERIDAN       CLEAR     50  43  77 S6        30.28R
BUFFALO        CLEAR     52  41  66 SW8       30.33R
GILLETTE       CLEAR     47  38  71 W3        30.29R
HULETT         FAIR      59  37  44 MISG      30.30
NEWCASTLE      FAIR      55  32  41 N5        30.29

$$
WYZ014>020-022>026-101>103-210400-
CENTRAL WYOMING

CITY           SKY/WX    TMP DP  RH WIND       PRES   REMARKS
BIG PINEY      CLEAR     63  28  26 S5        30.32R
PINEDALE       CLEAR     57  30  35 E8        30.34R
DUBOIS         FAIR      54  36  50 S3        30.37R
LANDER         CLEAR     62  40  44 W9        30.28R
RIVERTON       CLEAR     65  40  39 NE14      30.29R
CASPER         CLEAR     60  38  43 E9        30.32R
DOUGLAS        CLEAR     55  36  48 CALM      30.33R

$$
WYZ021-027>030-104>119-210400-
SOUTHERN WYOMING

CITY           SKY/WX    TMP DP  RH WIND       PRES   REMARKS
EVANSTON       PTCLDY    64  30  27 E8        30.30R
KEMMERER       CLEAR     63  30  29 E5        30.33R
FORT BRIDGER   FAIR      63  31  30 E8        30.33
ROCK SPRINGS   CLEAR     64  31  28 E13       30.29R
DIXON          FAIR      60  37  42 CALM      30.30R
RAWLINS        CLEAR     63  38  39 NE18      30.33R
SARATOGA       FAIR      55  37  50 CALM      30.34R
LARAMIE        CLEAR     59  41  51 E12       30.40R
CHEYENNE       MOCLDY    63  43  48 NE10      30.36R
TORRINGTON     CLEAR     61  39  44 NE13      30.26R
PINE BLUFFS    FAIR      59  43  55 N5        30.32R

$$



USA.gov is the U.S. government's official web portal to all federal, state and local government web resources and services.